Powrót do katalogu

COSMOS 1823 DEB

AktywnyLEO
NORAD 39818·DEBRIS·🇷🇺 Russia

Wystrzelony Feb 20, 1987 z Plesetsk Cosmodrome

Loading…

Następne Przeloty (najbliższe 24 godziny)

TLE

ŚwieżeSource: Space-Track

Epoka: Sep 14, 2026, 08:12 UTC

1 39818U 87020ES  26257.34215078  .00000272  00000-0  18645-2 0  9995
2 39818  73.6151 127.4490 0027513 262.3573  97.4352 12.51628774544430

Śledź COSMOS 1823 DEB w czasie rzeczywistym z AllMySat

Download on the App Store